Location: São Paulo
(23.5507°S, 46.6334°W)
Time: 07:23:14
(UTC-03:00)

Explorer 7 - Pass Details

Date: 20 February 2026
Orbit: 430 x 541 km, 50.2° (Epoch: 10 March)

Event Time Altitude Azimuth Distance (km) Brightness Sun altitude
Rises 00:36:00 0° 319° (NW) 2,692 - -55.3°
Reaches altitude 10° 00:38:13 10° 319° (NW) 1,807 - -55.2°
Maximum altitude 00:42:21 89° 239° (WSW) 549 - -55.1°
Drops below altitude 10° 00:46:29 10° 138° (SE) 1,803 - -54.9°
Sets 00:48:43 0° 138° (SE) 2,686 - -54.8°
